sat.trackr.live / text

‹ back to catalog

FLOCK 4G-15

NORAD 62678 · 2025-009BX

PAYLOAD ACTIVE UNKNOWN

§ Identity

Operator
Country
US
Launch date
2025-01-14
Launch site
AFWTR
Launch vehicle
Mass (kg)
RCS (m²)

Purposes: earth_obs

External: N2YO · Heavens-Above · Gunter

§ Orbital elements

Epoch: 2026-09-19T11:03:44.968032Z

Period
94.05 min
Inclination
97.3959°
Eccentricity
0.0004128
Mean motion
15.31149911 rev/d
Perigee alt
469.6 km
Apogee alt
475.2 km
Semi-major
6,850.5 km
B*
2.6666e-4
RAAN
343.9903°
Arg perigee
1.1802°
Mean anomaly
358.9448°
Rev number
15,096

§ Raw data

FLOCK 4G-151 62678U 25009BX  26262.46093713  .00007949  00000+0  26666-3 0  99932 62678  97.3959 343.9903 0004128   1.1802 358.9448 15.31149911150968

JSON: /api/v1/satellites/62678 · /tle

For live sub-satellite position, see the globe view (requires WebGL).

§ Visibility from observer

Set your observer location to see the next 7 days of passes ≥ 10°. The values pass through the URL so the page stays shareable.

No JS? Fill the form by hand. The geolocation button needs JavaScript.